Погода в Слуцке

Погода в Слуцке : погода сейчас, прогноз погоды и архив. Всё, что Вы хотите узнать о погоде в Слуцке!

Хотите узнать прогноз погоды в Слуцке? Тогда Вам сюда: Погода в Слуцке

Поиск расширенной информации на нашем сайте:

Полезная информация: Морозильные витрины www.vitrinabu.ru.
Круг стальной нержавеющий 14х17н2 калиброванный www.inotex.su.

Другие новости

Новости СМИ2

Главная страница сайта

Новости сайта

02.10.2013

Напоминаем, что на нашем новом сайте вы можете получить высокодетализированные прогнозы погоды по пунктам России, СНГ и мира (включающие важные для авиации метеовеличины, такие как направление и скорость ветра, видимость, явления погоды, количество и форма облачности, нижняя и верхняя граница облачности), а также ознакомиться с разнообразными материалами по авиационной метеорологии и подборкой полезных ссылок на эту тему.

Сайт Метеоцентр.Азия посвящён разработке технологий оптимизации авиаметеорологического обслуживания, включая проектирование и перспективное создание нескольких автоматизированных авиаметеорологических систем:
- система выпуска высокодетальных прогностических карт явлений погоды для нижнего воздушного пространства по России и ближнему зарубежью;
- система верификации прогнозов TAF (выпускаемых синоптиками официальных АМСГ РФ и ближнего зарубежья) и AUTOTAF (выпускаемых сайтом Метеоцентр.Азия) - выявление ошибок, онлайн-сопоставление с фактической погодой METAR, автоматическое внесение коррективов в прогнозы при резком отклонении фактической погоды от прогноза, подсчёт оправдываемости прогнозов по элементам и в целом;
- система обработки, анализа и отображения авиаметеорологической информации для применения провайдерами метеорологической информации.

Рекомендуем: лепнина из гипса, качество

Погода в Слуцке - сегодня

Время (UTC), дата Ветер
(°,м/с) 
Видим.   Явления Облачность Т
(°С)
Тd
(°С)
f(%) Тe
(°С)
Pmin
(гПа)
dP
(гПа)
Po
(мм)
O2
(г/м3)
Тmin Tmax R s Состояние
почвы
21 26.07.14 080 (В) 11000 м    ясно 
+18.9 +12.8 68 +25  1020  751  280           
00 27.07.14 070 (В) 10 км    ясно 
+16.6 +12.4 76 +22  1020.7  0.5  751  283           
03 27.07.14 080 (В) 12000 м    ясно 
+13.4 +11 85 +17  1021.3  0.4  751  287           
06 27.07.14 090 (В) 15000 м    ясно 
+23.1 +14.1 57 +30  1021  0.3  752  276  +13         
09 27.07.14 130 (ЮВ) 20000 м    6/5 600 м верхняя 
[Cu hum|Ci sp]
+28.5 +12 36 +32  1020.7  0.1  752  272           
12 27.07.14 080 (В) 20000 м    8/8 600 м 
[Cu hum]
+30.1 +12.5 34 +35  1019.6  -1  751  270           
15 27.07.14 150 (ЮВ) 19000 м    5/3 600 м верхняя 
[Cu hum|Ci sp]
+30.5 +12.4 33 +35  1017.9  -1.7  750  269           
18 27.07.14 200 (Ю) 14000 м    10/0 верхняя 
[Ci sp]
+26.3 +14.7 49 +34  1018.3  0.2  750  273    +31.4       
21 27.07.14 090 (В) 11000 м    3/0 верхняя 
[Ci sp]
+20 +14.9 72 +28  1019.1  0.4  750  279           
00 28.07.14 100 (В) 15000 м    1/0 верхняя 
[Ci sp]
+18.5 +14.1 76 +27  1019.5  0.3  750  280           
03 28.07.14 140 (ЮВ) 15000 м    10/0 верхняя 
[Ci sp]
+18 +14 77 +26  1019.4  -0.1  750  281           
06 28.07.14 130 (ЮВ) 20000 м    8/0 верхняя 
[Ci]
+24.3 +14.8 55 +33  1019  -0.1  750  275  +16.5         
09 28.07.14 200 (Ю) 25000 м    9/1 1000 м верхняя 
[Cu hum|Cs]
+29 +14.5 41 +37  1018.3  -0.4  750  270           
12 28.07.14 180 (Ю) 25000 м    9/1 600 м верхняя 
[Cu hum|Cs]
+31.4 +13.2 33 +37  1017  -1.1  749  268           
15 28.07.14 210 (ЮЗ) 28000 м    8/1 600 м верхняя 
[Cu med, cong|Cs]
+30.2 +13.1 35 +36  1016.1  -1  748  269           
18 28.07.14 100 (В) 11000 м    6/0 верхняя 
[Ci sp]
+27.6 +18.4 57 +43  1015.4  -0.7  748  269    +32.2       
21 28.07.14 120 (ЮВ) 12000 м    ясно 
+22.7 +20.1 85 +42  1015.8  0.1  748  273           
00 29.07.14 150 (ЮВ) 10 км    ясно 
+21.4 +20 92 +40  1016.1  0.1  748  275           
03 29.07.14 тихо ()   10 км    3/0 верхняя 
[Ci fib]
+17.5 +16.7 95 +29  1016.2  -0.1  748  279           
06 29.07.14 140 (ЮВ) 14000 м    3/3 1000 м 
[Cu hum]
+24.8 +19.2 71 +42  1015.6  748  272  +17         
09 29.07.14 180 (Ю) 15000 м    3/0 верхняя 
[Ci fib]
+29.6 +19.5 55 +47  1015.4  748  267           
12 29.07.14 190 (Ю) 18000 м    5/3 1000 м верхняя 
[Cu hum|Ci sp]
+31.4 +19.6 50 +49  1014.1  -1.2  747  265           
15 29.07.14 200 (Ю) 18000 м    6/3 1000 м верхняя 
[Cu hum|Ci sp]
+30.8 +19.9 52 +49  1012.7  -1.4  746  265           
18 29.07.14 140 (ЮВ) 14000 м    4/0 верхняя 
[Ci fib]
+26.7 +15.4 50 +36  1012.9  -0.1  746  271    +32.3       
21 29.07.14 150 (ЮВ) 14000 м    ясно 
+22.9 +14.2 58 +30  1013.6  0.4  746  275           
Время (UTC), дата Ветер
(°,м/с) 
Видим.   Явления Облачность Т
(°С)
Тd
(°С)
f(%) Тe
(°С)
Pmin
(гПа)
dP
(гПа)
Po
(мм)
O2
(г/м3)
Тmin Tmax R s Состояние
почвы

Для получения пояснительной информации подведите курсор к названию столбца.

ПОГОДА в Слуцке - архив

Всё, что Вы хотите узнать о погоде в Слуцке - удобно и подробно!

Выберите нужную дату (начиная с 1 января 2013* года) и нажмите кнопку "Найти".
Будут отображены архивные сводки погоды по пункту Слуцк, начиная с указанной даты.


Отображать данные в формате CSV (для использования в таблицах Excel)


Внимание! Наш архив погоды предназначен исключительно для личного некоммерческого использования в познавательных целях. Если Вам необходимы официальные справки о состоянии погоды (для производственных, юридических, коммерческих и т.п. целей), обращайтесь в органы Росгидромета.

*Примечание: данная дата относится к архиву по метеостанциям СССР (Россия, СНГ, Балтия).
Архив по метеостанциям Зарубежной Европы и Азии (кроме Китая) хранится 10 дней, по другим регионам земного шара (Китай, Африка, Америка, Австралия, Океания) - 1 день.

Слуцк - район местоположения метеостанции


Название, широта, долгота, высота метеостанции:
Слуцк 53°ш. 27.6°д. 162 м над ур. моря [Беларусь]

Дополнительная информация

В oтличие oт бoльшинства пoгoдных сайтoв мы публикуем пoдрoбную метеoинфoрмацию в детальнoм прoфессиoнальнoм фoрмате.

Характеристики температуры и влажнoсти вoздуха измеряются на высoте 2 м в тени вдали oт зданий и деревьев.
Скoрoсть ветра измеряется на высoте 10 м (на урoвне рoста челoвека скoрoсть ветра ниже в 1.5-2 раза). Если метеoстанция нахoдится в гoрoде или в лесу, тo скoрoсть ветра занижена на 2-4 м/с пo сравнению с oткрытым местoм. Скoрoсть ветра над акватoриями крупных рек и oзёр, а также на вершинах хoлмoв на 2-5 м/с выше, чем в oбычных услoвиях.
Атмoсфернoе давление в разных тoчках местнoсти мoжет значительнo oтличаться oт давления на метеoстанции, в зависимoсти oт услoвий рельефа (при пoдъёме на 10 м давление пoнижается примернo на 1 мм рт.ст.).